SHIJIAN-17 (SJ-17) (41838 NORAD) Tracking and Keplerian Element Data

This shows tracking and keplerian element data for the satellite.

Feedback or suggestion? Click here.




ElementValue
Catalog41838
NameSHIJIAN-17 (SJ-17)
Epoch Orbit2632
Epoch Day12.83093241
Epoch Year2024
RAAN83.2485
Inclination3.4861
Eccentricity0.0003675
Argument of Perigee279.5764
Mean Anonmoly215.322
Mean Motion1.00271429
Decay Rate-4E-07
L11 41838U 16065A 24012.83093241 -.00000040 00000+0 00000+0 0 9994
L22 41838 3.4861 83.2485 0003675 279.5764 215.3220 1.00271429 26323



Live tracking and technical data element details for SHIJIAN-17 (SJ-17) (NORAD 41838). SHIJIAN-17 (SJ-17) can be tracked NOW for your location showing map with azimuth and elevation plus other details from your city location.







IsCatalogInMostPopularTable: catalog: 41838, numindb: 731
Update: records affected: 1



GetName: 41838 SHIJIAN-17 (SJ-17)

Hit Count: updated at: Fri, 19 Apr 2024 12:54:29 GMT